Torna al catalogo

THOR ABLESTAR DEB

AttivoLEO
NORAD 254·DEBRIS·🇺🇸 United States

Lanciato Jun 29, 1961 da Cape Canaveral Space Force Station

Loading…

Prossimi Passaggi (prossime 24 ore)

TLE

AggiornatoSource: Space-Track

Epoca: Sep 5, 2026, 11:27 UTC

1 00254U 61015CF  26248.47733571  .00000805  00000-0  21362-3 0  9993
2 00254  66.7711  61.6082 0057430   9.3983 350.8187 14.53039999385342

Traccia THOR ABLESTAR DEB in tempo reale con AllMySat

Download on the App Store